Date,TemperatureHighF,TemperatureAvgF,TemperatureLowF,DewpointHighF,DewpointAvgF,DewpointLowF,HumidityHigh,HumidityAvg,HumidityLow,PressureMaxIn,PressureMinIn,WindSpeedMaxMPH,WindSpeedAvgMPH,GustSpeedMaxMPH,PrecipitationSumIn
2013-1-1,27,15,6,17,10,2,90,81,61,0.00,40.00,0,0,0,0.00
2013-1-2,28,11,0,15,6,-4,88,79,51,0.00,40.00,0,0,0,0.00
2013-1-3,29,14,0,14,7,-4,86,72,48,0.00,40.00,0,0,0,0.00
2013-1-4,40,26,18,26,18,10,91,71,46,0.00,40.00,0,0,0,0.00
2013-1-5,28,24,19,24,16,11,87,74,61,0.00,40.00,0,0,0,0.00
2013-1-6,40,29,21,26,22,16,91,74,49,0.00,40.00,0,0,0,0.00
2013-1-7,42,36,30,35,29,23,94,76,63,0.00,40.00,0,0,0,0.00
2013-1-8,43,38,34,36,31,26,93,76,59,0.00,40.00,0,0,0,0.00
2013-1-9,42,34,23,30,24,15,87,69,56,0.00,40.00,0,0,0,0.00
2013-1-10,29,21,12,19,14,9,88,77,51,0.00,40.00,0,0,0,0.00
2013-1-11,27,15,6,15,8,2,88,75,42,0.00,40.00,0,0,0,0.00
2013-1-12,24,10,2,11,2,-3,86,72,38,0.00,40.00,0,0,0,0.00
2013-1-13,27,9,-3,9,-1,-7,84,66,34,0.00,40.00,0,0,0,0.00
2013-1-14,38,21,6,19,9,0,79,62,32,0.00,40.00,0,0,0,0.00
2013-1-15,48,30,18,19,16,10,82,58,28,0.00,40.00,0,0,0,0.00
2013-1-16,50,31,17,20,15,12,80,56,22,0.00,40.00,0,0,0,0.00
2013-1-17,50,34,27,20,17,15,63,51,29,0.00,40.00,0,0,0,0.00
2013-1-18,52,33,23,19,17,14,67,53,24,0.00,40.00,0,0,0,0.00
2013-1-19,51,33,24,19,17,12,74,54,24,0.00,40.00,0,0,0,0.00
2013-1-20,47,30,20,18,16,14,83,59,27,0.00,40.00,0,0,0,0.00
2013-1-21,48,32,22,18,14,11,68,50,29,0.00,40.00,0,0,0,0.00
2013-1-22,50,33,23,20,16,12,71,51,29,0.00,40.00,0,0,0,0.00
2013-1-23,45,38,30,34,25,17,90,61,35,0.00,40.00,0,0,0,0.00
2013-1-24,46,38,33,37,32,27,96,78,49,0.00,40.00,0,0,0,0.00
2013-1-25,40,38,35,38,36,32,95,91,78,0.00,40.00,0,0,0,0.00
2013-1-26,38,30,24,33,22,15,95,73,45,0.00,40.00,0,0,0,0.00
2013-1-27,35,27,22,24,20,13,91,75,43,0.00,40.00,0,0,0,0.00
2013-1-28,32,29,26,27,24,21,89,80,64,0.00,40.00,0,0,0,0.00
2013-1-29,39,34,30,28,26,24,86,73,57,0.00,40.00,0,0,0,0.00
2013-1-30,43,36,32,30,28,22,80,71,58,0.00,40.00,0,0,0,0.00
2013-1-31,46,34,26,31,25,20,95,71,39,0.00,40.00,0,0,0,0.00
2013-2-1,50,33,23,28,24,21,94,74,35,0.00,40.00,0,0,0,0.00
2013-2-2,47,32,21,28,24,20,95,74,40,0.00,40.00,0,-7,0,0.00
2013-2-3,53,38,23,27,21,14,94,58,23,0.00,40.00,0,-7,0,0.00
2013-2-4,51,42,35,20,18,14,53,38,25,0.00,40.00,0,0,0,0.00
2013-2-5,41,37,29,32,21,14,87,54,35,0.00,40.00,0,0,0,0.00
2013-2-6,43,34,28,26,21,16,87,59,35,0.00,40.00,0,0,0,0.00
2013-2-7,37,31,25,27,20,11,92,66,38,0.00,40.00,0,0,0,0.00
2013-2-8,36,27,18,24,18,10,94,69,37,0.00,40.00,0,0,0,0.00
2013-2-9,43,27,14,24,19,12,93,74,44,0.00,40.00,0,0,0,0.00
2013-2-10,42,30,22,26,19,13,95,69,36,0.00,40.00,0,0,0,0.00
2013-2-11,50,31,18,27,21,17,94,70,29,0.00,40.00,0,0,0,0.00
2013-2-12,47,35,29,28,26,21,91,72,41,0.00,40.00,0,0,0,0.00
2013-2-13,44,36,29,31,28,23,93,72,50,0.00,40.00,0,0,0,0.00
2013-2-14,52,35,27,33,27,24,96,76,36,0.00,40.00,0,-28,0,0.00
2013-2-15,57,37,26,35,27,21,95,71,29,0.00,40.00,0,0,0,0.00
2013-2-16,51,35,26,28,23,17,90,65,35,0.00,40.00,0,0,0,0.00
2013-2-17,43,30,23,21,16,7,86,61,24,0.00,40.00,0,0,0,0.00
2013-2-18,39,30,24,20,17,12,82,60,37,0.00,40.00,0,0,0,0.00
2013-2-19,39,28,20,25,19,15,91,69,41,0.00,40.00,0,0,0,0.00
2013-2-20,39,27,17,24,18,15,94,71,41,0.00,40.00,0,0,0,0.00
2013-2-21,33,28,23,24,22,18,95,77,54,0.00,40.00,0,0,0,0.00
2013-2-22,42,31,24,32,26,22,97,81,51,0.00,40.00,0,0,0,0.00
2013-2-23,34,25,18,23,19,16,93,79,54,0.00,40.00,0,0,0,0.00
2013-2-24,42,29,17,28,19,15,91,70,39,0.00,40.00,0,0,0,0.00
2013-2-25,37,30,20,30,20,12,94,66,45,0.00,40.00,0,0,0,0.00
2013-2-26,43,30,19,18,14,11,87,57,27,0.00,40.00,0,0,0,0.00
2013-2-27,44,35,27,25,19,11,67,53,44,0.00,40.00,0,0,0,0.00
2013-2-28,49,40,35,36,34,25,91,77,61,0.00,40.00,0,0,0,0.00
2013-3-1,57,44,35,35,30,24,90,62,31,0.00,40.00,0,0,0,0.00
2013-3-2,51,41,34,31,28,23,83,63,39,0.00,40.00,0,0,0,0.00
2013-3-3,42,33,23,31,17,5,91,58,22,0.00,40.00,0,0,0,0.00
2013-3-4,50,31,16,21,16,13,94,59,26,0.00,40.00,0,0,0,0.00
2013-3-5,44,35,25,31,25,17,80,68,51,0.00,40.00,0,0,0,0.00
2013-3-6,34,32,30,33,28,24,96,85,71,0.00,40.00,0,0,0,0.00
2013-3-7,41,33,20,26,22,18,92,66,42,0.00,40.00,0,0,0,0.00
2013-3-8,41,31,23,28,24,19,95,78,47,0.00,40.00,0,0,0,0.00
2013-3-9,52,32,16,23,16,11,93,61,22,0.00,40.00,0,0,0,0.00
2013-3-10,57,44,23,32,24,13,88,49,20,0.00,40.00,0,0,0,0.00
2013-3-11,54,42,32,36,34,30,92,75,45,0.00,40.00,0,0,0,0.00
2013-3-12,61,44,32,36,27,15,96,60,20,0.00,40.00,0,0,0,0.00
2013-3-13,65,47,37,29,26,21,61,44,25,0.00,40.00,0,0,0,0.00
2013-3-14,63,46,35,32,26,20,67,48,24,0.00,40.00,0,0,0,0.00
2013-3-15,59,44,35,36,30,23,87,61,28,0.00,40.00,0,0,0,0.00
2013-3-16,48,38,31,33,29,24,91,72,41,0.00,40.00,0,0,0,0.00
2013-3-17,39,30,23,26,18,13,81,61,41,0.00,40.00,0,0,0,0.00
2013-3-18,51,34,25,24,17,4,87,55,19,0.00,40.00,0,0,0,0.00
2013-3-19,54,38,25,40,25,17,95,64,34,0.00,40.00,0,0,0,0.00
2013-3-20,42,37,26,38,31,19,93,79,59,0.00,40.00,0,0,0,0.00
2013-3-21,35,27,23,21,18,16,82,68,48,0.00,40.00,0,0,0,0.00
2013-3-22,36,26,18,19,13,7,89,61,33,0.00,40.00,0,0,0,0.00
2013-3-23,43,28,16,18,14,9,92,61,24,0.00,40.00,0,0,0,0.00
2013-3-24,46,33,21,22,19,16,83,60,37,0.00,40.00,0,0,0,0.00
2013-3-25,54,39,28,29,24,21,82,58,37,0.00,40.00,0,0,0,0.00
2013-3-26,50,38,31,35,31,26,95,78,51,0.00,40.00,0,0,0,0.00
2013-3-27,55,39,27,40,33,26,97,81,39,0.00,40.00,0,0,0,0.00
2013-3-28,55,42,34,40,36,27,96,80,35,0.00,40.00,0,0,0,0.00
2013-3-29,60,45,36,43,35,30,95,73,34,0.00,40.00,0,0,0,0.00
2013-3-30,69,48,29,38,32,-100,95,62,26,0.00,40.00,0,0,0,0.00
2013-3-31,64,48,34,40,34,29,93,63,32,0.00,40.00,0,0,0,0.00
2013-4-1,61,48,40,39,36,34,88,66,39,0.00,40.00,0,0,0,0.00
2013-4-2,62,46,36,37,34,32,93,66,35,0.00,40.00,0,0,0,0.00
2013-4-3,64,47,29,37,29,22,97,58,21,0.00,40.00,0,0,0,0.00
2013-4-4,57,46,40,42,34,28,87,64,45,0.00,40.00,0,0,0,0.00
2013-4-5,51,41,36,38,35,29,95,78,45,0.00,40.00,0,0,0,0.00
2013-4-6,49,40,35,36,33,27,94,80,43,0.00,40.00,0,0,0,0.00
2013-4-7,44,37,29,36,28,21,95,74,47,0.00,40.00,0,0,0,0.00
2013-4-8,44,33,25,23,20,15,89,61,38,0.00,40.00,0,0,0,0.00
2013-4-9,56,37,22,33,23,14,94,63,23,0.00,40.00,0,0,0,0.00
2013-4-10,55,44,35,42,34,27,80,68,45,0.00,40.00,0,0,0,0.00
2013-4-11,53,39,26,29,23,18,93,57,29,0.00,40.00,0,0,0,0.00
2013-4-12,58,40,24,33,24,14,92,60,20,0.00,40.00,0,0,0,0.00
2013-4-13,44,36,26,33,21,17,75,56,36,0.00,40.00,0,0,0,0.00
2013-4-14,41,30,23,27,21,16,93,72,39,0.00,40.00,0,0,0,0.00
2013-4-15,39,30,27,28,26,22,95,85,54,0.00,40.00,0,0,0,0.00
2013-4-16,38,30,23,29,25,22,95,83,58,0.00,40.00,0,0,0,0.00
2013-4-17,48,32,16,26,18,12,94,63,28,0.00,40.00,0,0,0,0.00
2013-4-18,58,41,27,35,29,23,91,64,35,0.00,40.00,0,0,0,0.00
2013-4-19,51,42,34,40,35,30,94,75,50,0.00,40.00,0,0,0,0.00
2013-4-20,58,43,33,33,29,24,93,63,31,0.00,40.00,0,0,0,0.00
2013-4-21,55,43,34,37,32,26,91,65,38,0.00,40.00,0,0,0,0.00
2013-4-22,52,39,29,36,23,11,93,58,27,0.00,40.00,0,0,0,0.00
2013-4-23,62,40,20,18,12,6,81,40,12,0.00,40.00,0,0,0,0.00
2013-4-24,67,46,24,23,18,8,67,36,17,0.00,40.00,0,0,0,0.00
2013-4-25,72,50,28,36,27,19,69,44,26,0.00,40.00,0,0,0,0.00
2013-4-26,77,54,32,35,29,24,92,47,15,0.00,40.00,0,0,0,0.00
2013-4-27,70,54,40,35,31,26,73,45,22,0.00,40.00,0,0,0,0.00
2013-4-28,63,50,39,37,30,24,65,48,30,0.00,40.00,0,0,0,0.00
2013-4-29,54,46,32,41,33,20,94,66,33,0.00,40.00,0,0,0,0.00
2013-4-30,50,38,24,23,17,11,82,46,23,0.00,40.00,0,0,0,0.00
2013-5-1,62,40,20,22,17,13,87,47,17,0.00,40.00,0,0,0,0.00
2013-5-2,74,51,28,26,20,16,73,36,13,0.00,40.00,0,0,0,0.00
2013-5-3,70,52,33,35,28,20,73,43,24,0.00,40.00,0,0,0,0.00
2013-5-4,66,52,38,36,31,27,67,46,32,0.00,40.00,0,0,0,0.00
2013-5-5,71,54,36,39,33,26,73,46,31,0.00,40.00,0,0,0,0.00
2013-5-6,76,58,42,44,36,29,73,46,28,0.00,40.00,0,0,0,0.00
2013-5-7,76,60,44,45,39,31,95,55,20,0.00,40.00,0,0,0,0.00
2013-5-8,79,58,40,44,39,30,94,57,20,0.00,40.00,0,0,0,0.00
2013-5-9,79,56,41,53,43,34,96,70,22,0.00,40.00,0,0,0,0.00
2013-5-10,82,59,41,47,40,-100,96,60,20,0.00,40.00,0,0,0,0.00
2013-5-11,84,65,49,51,44,-100,89,54,20,0.00,40.00,0,0,0,0.00
2013-5-12,82,65,50,52,44,37,94,55,22,0.00,40.00,0,0,0,0.00
2013-5-13,67,54,38,45,39,31,85,59,35,0.00,40.00,0,0,0,0.00
2013-5-14,68,49,32,35,32,24,96,58,24,0.00,40.00,0,0,0,0.00
2013-5-15,64,46,35,45,36,31,94,71,32,0.00,40.00,0,0,0,0.00
2013-5-16,54,41,37,45,24,-100,95,83,49,0.00,40.00,0,0,0,0.00
2013-5-17,59,44,37,38,30,-100,96,67,32,0.00,40.00,0,0,0,0.00
2013-5-18,58,44,33,36,33,30,91,67,42,0.00,40.00,0,0,0,0.00
2013-5-19,61,47,34,34,32,29,92,59,32,0.00,40.00,0,0,0,0.00
2013-5-20,73,51,29,39,32,26,96,57,18,0.00,40.00,0,0,0,0.00
2013-5-21,54,42,28,40,30,22,90,66,34,0.00,40.00,0,0,0,0.00
2013-5-22,41,33,27,34,27,22,91,80,60,0.00,40.00,0,0,0,0.00
2013-5-23,55,40,29,33,26,23,87,61,32,0.00,40.00,0,0,0,0.00
2013-5-24,57,44,35,33,29,21,88,59,25,0.00,40.00,0,0,0,0.00
2013-5-25,65,45,27,43,30,26,97,63,25,0.00,40.00,0,0,0,0.00
2013-5-26,59,47,39,42,36,29,96,70,34,0.00,40.00,0,0,0,0.00
2013-5-27,54,44,35,44,38,33,93,80,59,0.00,40.00,0,0,0,0.00
2013-5-28,61,49,38,39,34,28,91,62,30,0.00,40.00,0,0,0,0.00
2013-5-29,55,45,39,42,36,30,94,73,43,0.00,40.00,0,0,0,0.00
2013-5-30,61,45,32,34,29,24,91,58,26,0.00,40.00,0,0,0,0.00
2013-5-31,71,49,27,32,27,19,95,52,14,0.00,40.00,0,0,0,0.00
2013-6-1,77,57,35,39,34,31,88,48,21,0.00,40.00,0,0,0,0.00
2013-6-2,70,54,38,45,35,26,95,56,20,0.00,40.00,0,0,0,0.00
2013-6-3,75,55,33,36,31,25,94,48,19,0.00,40.00,0,0,0,0.00
2013-6-4,79,58,36,36,32,26,74,40,20,0.00,40.00,0,0,0,0.00
2013-6-5,86,65,42,43,39,32,80,44,22,0.00,40.00,0,0,0,0.00
2013-6-6,87,67,46,50,45,41,87,51,23,0.00,40.00,0,0,0,0.00
2013-6-7,84,65,49,50,44,37,94,55,24,0.00,40.00,0,-7,0,0.00
2013-6-8,87,66,44,47,39,28,94,47,15,0.00,40.00,0,0,0,0.00
2013-6-9,85,64,45,44,38,30,84,44,19,0.00,40.00,0,0,0,0.00
2013-6-10,80,58,35,38,33,30,91,46,19,0.00,40.00,0,-14,0,0.00
2013-6-11,63,50,39,37,33,28,82,56,28,0.00,40.00,0,0,0,0.00
2013-6-12,66,47,29,34,30,28,96,58,30,0.00,40.00,0,-14,0,0.00
2013-6-13,56,44,34,39,34,30,95,70,39,0.00,40.00,0,0,0,0.00
2013-6-14,71,52,30,36,30,24,98,52,22,0.00,40.00,0,0,0,0.00
2013-6-15,82,59,36,44,34,25,89,46,17,0.00,40.00,0,0,0,0.00
2013-6-16,79,60,42,51,42,36,93,56,24,0.00,40.00,0,0,0,0.00
2013-6-17,76,58,41,44,39,35,96,56,26,0.00,40.00,0,0,0,0.00
2013-6-18,59,50,43,45,41,36,93,71,45,0.00,40.00,0,0,0,0.00
2013-6-19,58,46,37,37,33,30,86,63,38,0.00,40.00,0,-7,0,0.00
2013-6-20,56,43,36,43,32,29,91,70,37,0.00,40.00,0,-23,0,0.00
2013-6-21,58,55,52,35,33,32,49,44,38,0.00,40.00,0,0,0,0.00
2013-6-22,75,64,33,40,35,32,95,37,22,0.00,40.00,0,0,0,0.00
2013-6-23,59,54,49,52,48,39,95,79,54,0.00,40.00,0,-9,0,0.00
2013-6-24,58,50,46,48,44,39,95,82,51,0.00,40.00,0,-30,0,0.00
2013-6-25,60,52,48,50,44,40,90,74,49,0.00,40.00,0,0,0,0.00
2013-6-26,66,55,47,54,49,44,93,79,49,0.00,40.00,0,0,0,0.00
2013-6-27,83,63,43,51,46,41,95,62,25,0.00,40.00,0,-31,0,0.00
2013-6-28,83,60,49,52,50,45,93,73,26,0.00,40.00,0,-143,0,0.00
2013-7-1,97,80,63,56,52,49,66,41,20,0.00,40.00,0,0,0,0.00
2013-7-2,97,79,59,60,52,44,93,46,17,0.00,40.00,0,0,0,0.00
2013-7-3,95,77,63,60,51,42,87,46,20,0.00,40.00,0,0,0,0.00
2013-7-4,82,70,54,43,40,35,54,36,23,0.00,40.00,0,0,0,0.00
2013-7-5,79,61,45,45,36,25,93,46,20,0.00,40.00,0,0,0,0.00
2013-7-6,83,60,37,41,32,25,78,40,18,0.00,40.00,0,0,0,0.00
2013-7-7,88,67,44,47,41,36,88,45,19,0.00,40.00,0,0,0,0.00
2013-7-8,87,62,44,48,39,-100,94,53,16,0.00,40.00,0,0,0,0.00
2013-7-9,93,69,49,49,44,36,75,45,17,0.00,40.00,0,0,0,0.00
2013-7-10,90,71,53,52,44,-100,82,44,22,0.00,40.00,0,0,0,0.00
2013-7-11,83,66,49,47,43,40,76,46,24,0.00,40.00,0,0,0,0.00
2013-7-12,79,61,46,46,38,33,88,49,22,0.00,40.00,0,0,0,0.00
2013-7-13,78,60,37,41,36,25,89,46,24,0.00,40.00,0,0,0,0.00
2013-7-14,88,64,42,46,36,25,53,37,22,0.00,40.00,0,0,0,0.00
2013-7-15,88,65,46,49,44,40,81,51,24,0.00,40.00,0,0,0,0.00
2013-7-16,82,69,57,47,41,32,52,36,29,0.00,40.00,0,0,0,0.00
2013-7-17,83,64,54,45,42,38,57,45,24,0.00,40.00,0,0,0,0.00
2013-7-18,85,65,47,51,44,38,74,49,23,0.00,40.00,0,0,0,0.00
2013-7-19,78,61,48,46,40,34,62,48,22,0.00,40.00,0,0,0,0.00
2013-7-20,80,60,49,52,36,-100,65,45,23,0.00,40.00,0,0,0,0.00
2013-7-21,84,61,49,47,36,28,81,43,17,0.00,40.00,0,0,0,0.00
2013-7-22,83,63,47,46,40,35,79,46,22,0.00,40.00,0,0,0,0.00
2013-7-23,91,64,49,52,43,35,75,48,21,0.00,40.00,0,0,0,0.00
2013-7-24,87,66,55,51,45,42,65,49,23,0.00,40.00,0,0,0,0.00
2013-7-25,89,67,52,53,45,36,73,49,25,0.00,40.00,0,0,0,0.00
2013-7-26,86,66,56,52,39,31,48,37,28,0.00,40.00,0,0,0,0.00
2013-7-27,74,58,48,48,38,33,67,49,30,0.00,40.00,0,0,0,0.00
2013-7-28,77,58,45,45,41,38,75,54,31,0.00,40.00,0,0,0,0.00
2013-7-29,83,62,42,44,40,36,95,51,20,0.00,40.00,0,0,0,0.00
2013-7-30,81,64,45,47,41,33,89,49,19,0.00,40.00,0,0,0,0.00
2013-7-31,79,63,52,52,45,41,94,56,30,0.00,40.00,0,0,0,0.00
2013-8-1,73,57,48,55,46,40,94,69,35,0.00,40.00,0,0,0,0.00
2013-8-2,76,56,40,44,39,32,97,59,26,0.00,40.00,0,0,0,0.00
2013-8-3,83,62,39,43,36,30,90,46,19,0.00,40.00,0,0,0,0.00
2013-8-4,88,68,46,46,41,38,84,44,18,0.00,40.00,0,0,0,0.00
2013-8-5,88,68,49,49,43,36,79,44,22,0.00,40.00,0,0,0,0.00
2013-8-6,90,71,50,50,43,37,80,41,20,0.00,40.00,0,0,0,0.00
2013-8-7,82,66,53,48,43,38,61,44,29,0.00,40.00,0,0,0,0.00
2013-8-8,81,64,46,48,43,40,86,50,28,0.00,40.00,0,0,0,0.00
2013-8-9,81,64,52,51,47,44,80,57,33,0.00,40.00,0,0,0,0.00
2013-8-10,74,58,43,49,45,42,97,66,35,0.00,40.00,0,0,0,0.00
2013-8-11,81,60,44,46,42,39,95,59,24,0.00,40.00,0,0,0,0.00
2013-8-12,84,61,45,47,44,39,96,61,21,0.00,40.00,0,0,0,0.00
2013-8-13,85,66,47,47,31,-100,90,40,21,0.00,40.00,0,0,0,0.00
2013-8-14,88,65,48,48,38,-100,75,44,20,0.00,40.00,0,0,0,0.00
2013-8-15,89,58,51,48,27,-100,84,48,20,0.00,40.00,0,0,0,0.00
2013-8-16,84,65,50,51,42,-100,92,53,28,0.00,40.00,0,0,0,0.00
2013-8-17,86,66,53,52,45,-100,95,53,25,0.00,40.00,0,0,0,0.00
2013-8-18,88,68,47,49,42,36,95,49,17,0.00,40.00,0,0,0,0.00
2013-8-19,90,61,47,48,28,-100,92,46,19,0.00,40.00,0,0,0,0.00
2013-8-20,85,68,45,44,31,-100,91,34,14,0.00,40.00,0,0,0,0.00
2013-8-21,85,67,50,43,34,22,44,30,22,0.00,40.00,0,-23,0,0.00
2013-8-22,79,61,50,53,44,30,94,56,31,0.00,40.00,0,0,0,0.00
2013-8-23,80,63,48,49,44,41,93,56,27,0.00,40.00,0,0,0,0.00
2013-8-24,80,61,48,53,44,-100,93,61,28,0.00,40.00,0,0,0,0.00
2013-8-25,72,56,45,51,47,42,95,75,36,0.00,40.00,0,0,0,0.00
2013-8-26,72,55,44,52,43,36,96,69,29,0.00,40.00,0,0,0,0.00
2013-8-27,74,52,42,45,41,37,92,72,26,0.00,40.00,0,0,0,0.00
2013-8-28,84,74,60,44,38,33,55,29,18,0.00,40.00,0,0,0,0.00
2013-8-29,80,64,52,50,45,39,86,54,26,0.00,40.00,0,0,0,0.00
2013-8-30,82,65,50,50,45,38,92,56,23,0.00,40.00,0,0,0,0.00
2013-8-31,89,66,45,48,42,-100,95,53,15,0.00,40.00,0,-33,0,0.00
2013-9-1,89,69,50,50,39,28,85,42,12,0.00,40.00,0,-12,0,0.00
2013-9-2,84,66,51,51,45,33,90,54,18,0.00,40.00,0,0,0,0.00
2013-9-3,81,60,45,48,41,27,95,59,15,0.00,40.00,0,-24,0,0.00
2013-9-4,83,60,42,47,39,26,95,56,14,0.00,40.00,0,0,0,0.00
2013-9-5,69,55,47,48,43,39,94,66,39,0.00,40.00,0,0,0,0.00
2013-9-6,72,55,46,45,42,39,93,64,32,0.00,40.00,0,-10,0,0.00
2013-9-7,82,56,41,47,38,-100,96,63,18,0.00,40.00,0,0,0,0.00
2013-9-8,77,56,42,47,40,36,92,62,27,0.00,40.00,0,-13,0,0.00
2013-9-9,83,61,41,42,36,32,86,48,16,0.00,40.00,0,0,0,0.00
2013-9-10,85,64,44,44,39,34,76,45,22,0.00,40.00,0,-36,0,0.00
2013-9-11,88,67,47,47,42,38,82,45,22,0.00,40.00,0,-12,0,0.00
2013-9-12,90,70,51,49,42,38,70,40,22,0.00,40.00,0,0,0,0.00
2013-9-13,86,66,51,45,40,34,55,41,24,0.00,40.00,0,0,0,0.00
2013-9-14,88,66,48,48,43,-100,88,50,23,0.00,40.00,0,-10,0,0.00
2013-9-15,87,65,53,48,43,33,74,50,17,0.00,40.00,0,0,0,0.00
2013-9-16,73,56,44,45,42,38,93,62,29,0.00,40.00,0,-12,0,0.00
2013-9-17,58,47,41,47,42,38,95,82,55,0.00,40.00,0,-43,0,0.00
2013-9-18,48,41,37,38,34,28,96,80,46,0.00,40.00,0,-54,0,0.00
2013-9-19,77,53,32,34,29,24,96,51,16,0.00,40.00,0,-12,0,0.00
2013-9-20,76,54,35,45,34,29,91,54,19,0.00,40.00,0,0,0,0.00
2013-9-21,58,47,38,41,36,-100,94,68,41,0.00,40.00,0,0,0,0.00
2013-9-22,53,46,41,46,39,34,92,77,54,0.00,40.00,0,-11,0,0.00
2013-9-23,62,51,46,40,38,36,75,63,41,0.00,40.00,0,-22,0,0.00
2013-9-24,50,44,38,43,38,32,95,79,54,0.00,40.00,0,-43,0,0.00
2013-9-25,48,37,31,38,34,30,97,87,55,0.00,40.00,0,-22,0,0.00
2013-9-26,53,38,29,38,30,27,97,74,39,0.00,40.00,0,-11,0,0.00
2013-10-2,49,34,25,30,26,21,95,74,38,0.00,40.00,0,0,0,0.00
2013-10-3,50,37,27,29,26,24,95,70,39,0.00,40.00,0,0,0,0.00
2013-10-4,57,35,25,31,24,19,95,72,23,0.00,40.00,0,0,0,0.00
2013-10-5,70,44,29,27,24,20,87,53,15,0.00,40.00,0,0,0,0.00
2013-10-6,73,53,36,31,28,25,71,44,19,0.00,40.00,0,0,0,0.00
2013-10-7,50,46,39,37,29,21,81,53,38,0.00,40.00,0,0,0,0.00
2013-10-8,45,39,33,35,32,30,95,79,56,0.00,40.00,0,0,0,0.00
2013-10-9,39,34,31,34,31,28,96,90,70,0.00,40.00,0,0,0,0.00
2013-10-10,54,36,28,32,28,25,95,78,36,0.00,40.00,0,0,0,0.00
2013-10-11,49,34,26,30,28,25,96,80,44,0.00,40.00,0,0,0,0.00
2013-10-12,44,36,30,35,27,-100,94,74,52,0.00,40.00,0,0,0,0.00
2013-10-13,45,39,30,35,31,26,93,76,48,0.00,40.00,0,0,0,0.00
2013-10-14,53,34,24,28,25,22,95,73,33,0.00,40.00,0,0,0,0.00
2013-10-15,59,38,24,26,23,19,93,61,27,0.00,40.00,0,0,0,0.00
2013-10-16,63,42,30,26,23,21,75,53,23,0.00,40.00,0,0,0,0.00
2013-10-17,61,41,27,31,26,24,94,60,29,0.00,40.00,0,0,0,0.00
2013-10-18,55,34,26,30,27,25,96,79,37,0.00,40.00,0,0,0,0.00
2013-10-19,71,45,34,30,20,-100,83,47,18,0.00,40.00,0,0,0,0.00
2013-10-20,68,45,29,32,28,25,88,56,24,0.00,40.00,0,0,0,0.00
2013-10-21,67,47,30,33,30,28,95,58,27,0.00,40.00,0,0,0,0.00
2013-10-22,68,44,29,34,31,29,96,67,28,0.00,40.00,0,0,0,0.00
2013-10-23,67,41,30,34,31,29,96,73,30,0.00,40.00,0,0,0,0.00
2013-10-24,66,40,30,34,32,29,97,78,27,0.00,40.00,0,0,0,0.00
2013-10-25,70,44,33,34,30,25,93,68,19,0.00,40.00,0,0,0,0.00
2013-10-26,68,45,30,32,21,-100,92,53,21,0.00,40.00,0,0,0,0.00
2013-10-27,50,35,30,36,32,24,97,89,35,0.00,40.00,0,0,0,0.00
2013-10-28,36,30,26,35,22,-100,97,83,62,0.00,40.00,0,0,0,0.00
2013-10-29,43,29,21,25,18,15,91,66,35,0.00,40.00,0,0,0,0.00
2013-10-30,54,40,28,30,27,25,87,62,32,0.00,40.00,0,0,0,0.00
2013-10-31,54,46,40,43,39,29,95,78,56,0.00,40.00,0,0,0,0.00
2013-11-1,51,40,31,41,37,30,95,90,62,0.00,40.00,0,0,0,0.00
2013-11-2,45,36,28,39,26,-100,94,75,50,0.00,40.00,0,0,0,0.00
2013-11-3,38,32,27,27,25,18,90,77,45,0.00,40.00,0,0,0,0.00
2013-11-4,43,35,30,28,26,24,82,71,51,0.00,40.00,0,0,0,0.00
2013-11-5,46,40,35,41,36,28,94,86,73,0.00,40.00,0,0,0,0.00
2013-11-6,52,46,42,43,41,40,94,85,64,0.00,40.00,0,0,0,0.00
2013-11-7,48,40,33,43,34,25,94,78,62,0.00,40.00,0,0,0,0.00
2013-11-8,43,35,27,27,26,22,91,70,44,0.00,40.00,0,0,0,0.00
2013-11-9,49,35,26,32,23,-100,94,71,41,0.00,40.00,0,0,0,0.00
2013-11-10,57,44,31,34,32,28,89,64,35,0.00,40.00,0,0,0,0.00
2013-11-11,40,33,29,37,31,27,96,92,76,0.00,40.00,0,0,0,0.00
2013-11-12,53,42,32,41,36,25,96,79,47,0.00,40.00,0,0,0,0.00
2013-11-13,51,38,30,38,30,24,96,76,35,0.00,40.00,0,0,0,0.00
2013-11-14,46,33,25,24,22,18,92,67,34,0.00,40.00,0,0,0,0.00
2013-11-15,37,31,24,25,22,19,94,69,48,0.00,40.00,0,0,0,0.00
2013-11-16,38,33,32,29,23,-100,86,71,60,0.00,40.00,0,0,0,0.00
2013-11-17,42,35,31,28,26,24,85,71,54,0.00,40.00,0,0,0,0.00
2013-11-18,46,36,29,36,27,23,95,73,46,0.00,40.00,0,0,0,0.00
2013-11-19,42,39,35,41,37,34,95,93,88,0.00,40.00,0,0,0,0.00
2013-11-20,36,25,15,35,15,-3,95,67,43,0.00,40.00,0,0,0,0.00
2013-11-21,28,17,11,1,-2,-6,57,43,25,0.00,40.00,0,0,0,0.00
2013-11-22,35,18,7,12,4,1,81,57,31,0.00,40.00,0,0,0,0.00
2013-11-23,39,22,9,15,7,-100,87,61,32,0.00,40.00,0,0,0,0.00
2013-11-24,50,34,20,20,16,13,81,55,22,0.00,40.00,0,0,0,0.00
2013-11-25,52,31,23,21,17,15,75,59,24,0.00,40.00,0,0,0,0.00
2013-11-26,50,35,28,22,18,16,77,54,27,0.00,40.00,0,0,0,0.00
2013-11-27,47,35,26,24,22,21,85,62,37,0.00,40.00,0,0,0,0.00
2013-11-28,50,30,22,22,21,19,95,74,31,0.00,40.00,0,0,0,0.00
2013-11-29,52,38,23,26,23,21,94,60,30,0.00,40.00,0,0,0,0.00
2013-11-30,49,39,33,33,26,-100,95,65,46,0.00,40.00,0,0,0,0.00
2013-12-1,47,44,41,44,36,32,92,74,61,0.00,40.00,0,0,0,0.00
2013-12-2,43,33,22,36,27,15,96,80,55,0.00,40.00,0,0,0,0.00
2013-12-3,22,17,9,19,12,5,90,82,71,0.00,40.00,0,0,0,0.00
2013-12-4,18,9,-2,5,-1,-6,82,65,44,0.00,40.00,0,0,0,0.00
2013-12-5,22,11,-4,4,0,-8,84,64,39,0.00,40.00,0,0,0,0.00
2013-12-6,8,6,4,4,2,0,88,84,80,0.00,40.00,0,0,0,0.00
2013-12-7,7,-1,-13,0,-10,-100,83,75,59,0.00,40.00,0,0,0,0.00
2013-12-8,17,8,-2,6,1,-6,83,75,58,0.00,40.00,0,0,0,0.00
2013-12-9,31,19,-1,17,9,-5,84,67,52,0.00,40.00,0,0,0,0.00
2013-12-10,36,23,14,21,15,9,93,74,47,0.00,40.00,0,0,0,0.00
2013-12-11,37,29,19,23,20,18,93,69,54,0.00,40.00,0,0,0,0.00
2013-12-12,40,28,16,28,19,12,88,69,44,0.00,40.00,0,0,0,0.00
2013-12-13,43,33,27,29,28,25,96,82,55,0.00,40.00,0,0,0,0.00
2013-12-14,46,37,28,27,13,-100,96,53,36,0.00,40.00,0,0,0,0.00
2013-12-15,50,40,34,34,28,19,91,61,44,0.00,40.00,0,0,0,0.00
2013-12-16,51,38,24,29,23,20,94,60,30,0.00,40.00,0,0,0,0.00
2013-12-17,54,44,34,22,20,18,58,39,28,0.00,40.00,0,0,0,0.00
2013-12-18,40,33,27,29,27,23,95,80,56,0.00,40.00,0,0,0,0.00
2013-12-19,27,21,12,23,10,4,90,65,41,0.00,40.00,0,0,0,0.00
2013-12-20,39,33,17,37,28,6,94,81,54,0.00,40.00,0,0,0,0.00
2013-12-21,46,37,34,34,28,-100,88,75,49,0.00,40.00,0,0,0,0.00
2013-12-22,45,40,38,35,30,26,82,68,50,0.00,40.00,0,0,0,0.00
2013-12-23,45,41,36,36,26,18,73,57,39,0.00,40.00,0,0,0,0.00
2013-12-24,44,32,26,27,22,18,95,71,35,0.00,40.00,0,0,0,0.00
2013-12-25,47,39,32,20,19,18,58,45,34,0.00,40.00,0,0,0,0.00
2013-12-26,56,38,28,23,20,19,69,52,26,0.00,40.00,0,0,0,0.00
2013-12-27,46,34,28,22,19,17,67,53,38,0.00,40.00,0,0,0,0.00
2013-12-28,44,30,19,19,4,-100,95,44,25,0.00,40.00,0,0,0,0.00
2013-12-29,44,32,20,18,15,12,74,51,30,0.00,40.00,0,0,0,0.00
2013-12-30,41,35,31,23,18,16,56,50,45,0.00,40.00,0,0,0,0.00
2013-12-31,48,38,30,22,20,18,69,50,30,0.00,40.00,0,0,0,0.00
2014-1-1,49,33,25,27,24,21,93,73,42,0.00,40.00,0,0,0,0.00
2014-1-2,54,40,29,27,26,24,88,60,34,0.00,40.00,0,0,0,0.00